STARLINK-34091, 63808

Orbit data source: Space-Track

STARLINK-34091, 63808 is a payload satellite owned by SpaceX/Seattle (US) in LEO that was launched on Sun, 04 May 2025 UTC via an FALCON 9 launch vehicle from the Air Force Eastern Test Range (AFETR). Payload-class satellites include a variety of spacecraft equipped with specific instruments for various scientific and technological missions. These include communications satellites like Starlink; space stations such as the ISS; scientific satellites like the Hubble; Earth observation satellites from companies like Planet Labs, Umbra, and HawkEye 360; GPS; miniature CubeSats for education and research; and military/defense satellites.

Loading next visibility...
Identifier
63808, 2025-092E
Orbit
LEO
Country
Flag of USUS
Related business
Manufacturer
SpaceX/Seattle
Mission
Operational Commercial Communications
Bus & Motor
STARLINK V2MO, Unknown motor
Mass
575 kg wet, ~530 kg dry
Launch date (UTC)
2025-05-04 (6 months ago)
Launch vehicle
FALCON 9
Launch site
Air Force Eastern Test Range (AFETR)
Object type
Payload
Rocket body
Debris
Shape & HBR
Box + 2 Pan, 17.7 m
Radar Cross Section
36.964 m², Large (>1 m²)

Expand to show TLE details & history
Last TLE update: 15 hours ago

TLE from 15 hours ago
0 STARLINK-34091
1 63808U 25092E   25302.72291201  .00007030  00000-0  26472-3 0  9993
2 63808  42.9983 192.2916 0000963 291.0833  68.9915 15.27580540 28630
Epoch: 2025-10-29T17:20Z
TLE epoch observation values (Epoch: 2025-10-29T17:20:59.597Z)
Latitude
-0.00007°
Longitude
-106.24875°
Altitude
482.586 km
Speed
7.626 km/s
True Right ascension
12h 49m 09s
True Declination
0° 00' 00"
Sunlit
Object was in daylight at epoch
Visualization orbit readout
Latitude
Unknown
Longitude
Unknown
Altitude
Unknown
Speed
Unknown
Apparent Right ascension
Unknown
Apparent Declination
Unknown
Sunlit
N/A
Visualization observer readout
Local Sidereal Time
03:41:26
Azimuth
Unknown
Elevation
Unknown
Doppler factor
Unknown
Orbital elements
Apogee altitude
485.654 km
Perigee altitude
484.332 km
Semi-major axis
6,863.13 km
Eccentricity
0.0001
Inclination
42.9983°
RAAN
192.2916°
Arg. of periapsis
291.0833°
True anomaly
69.0018°
Mean anomaly
68.9915°
Eccentric anomaly
68.99665°
Mean motion
3.81733 °/min
Orbital period
94.31 mins
BSTAR
0.00026472
Loading maneuver chart data...
Computing Atmospheric mass density...
Loading historical data...
Loading historical data...
Loading historical data...
Loading historical data...
Loading historical data...
Loading historical data...
Loading historical data...

Documentation

Showing up to 5 results
|